Theta_e
364 364 364 363 362 361 361 361 361 361 360 359 358 355 350 349 350 348 347 347 345 344 344 345 345 345 345 343 342 341 341 340 341 342 342 343 343 342 341 341 340 340
364 364 363 363 363 362 361 361 360 361 360 358 357 354 351 349 349 348 348 347 346 344 344 345 345 345 345 344 342 341 341 341 341 341 341 342 342 342 341 341 341 340
364 364 364 363 363 363 362 361 360 361 360 358 356 354 351 350 349 348 348 348 346 344 344 345 346 345 344 343 342 341 341 341 341 340 340 341 342 342 342 341 340 340
364 364 364 363 363 363 361 361 361 361 361 359 357 354 352 351 350 349 348 348 347 345 344 345 346 345 344 342 342 342 341 341 341 341 340 341 341 342 341 341 340 339
365 364 363 363 363 362 361 361 362 362 361 360 358 355 353 352 351 350 348 348 347 346 345 345 346 345 344 343 342 342 342 342 342 341 341 341 341 341 341 340 340 339
366 365 364 363 362 362 361 361 361 361 361 361 359 357 354 352 351 350 348 347 347 346 346 346 346 345 344 343 343 343 342 342 342 341 341 341 341 341 340 339 339 339
367 367 365 363 362 361 361 361 361 361 362 361 359 357 355 353 352 351 349 347 346 346 346 346 346 346 344 344 344 344 343 342 341 341 341 341 341 340 340 339 339 339
368 367 366 365 363 362 361 361 361 361 361 361 359 357 355 353 352 351 349 348 346 345 346 346 346 346 345 345 345 343 342 342 341 340 341 340 340 340 339 339 339 338
368 368 366 365 365 364 362 361 361 362 361 361 360 357 356 354 352 351 350 349 346 345 345 345 345 345 345 345 344 343 343 342 340 340 340 341 340 340 340 339 339 339
368 369 368 367 366 366 364 362 362 363 361 361 360 358 356 354 352 351 350 349 347 345 345 344 344 345 344 344 344 343 343 342 340 340 341 341 340 340 340 340 339 340
368 369 369 368 367 367 366 363 363 364 362 361 360 359 357 355 353 352 350 349 347 346 345 344 344 344 344 343 343 343 343 342 340 339 340 340 340 340 340 340 340 340
368 368 369 369 368 367 366 364 362 363 363 362 360 359 358 357 354 352 350 348 346 346 345 344 344 344 344 343 343 343 342 341 340 339 340 340 340 340 340 340 340 341
368 367 368 370 368 366 366 364 361 362 364 362 361 360 360 357 355 353 350 347 345 346 346 344 342 343 344 342 342 343 342 341 341 340 340 340 340 340 340 341 341 341
369 367 368 368 367 366 365 364 362 361 363 363 362 361 360 358 356 353 350 347 345 345 345 343 341 343 344 343 342 342 341 341 341 340 340 339 339 340 341 341 341 341
369 368 367 367 368 367 365 364 363 362 362 363 362 361 359 357 355 352 349 347 345 344 343 342 341 343 345 343 342 342 342 342 342 342 341 339 340 340 341 341 341 341
370 370 369 369 369 368 366 365 364 363 362 362 362 360 358 357 354 351 349 347 345 344 343 342 342 342 343 343 341 341 342 343 343 342 341 340 340 341 341 341 341 340
372 372 372 370 369 368 367 366 364 363 362 361 362 360 358 357 354 351 349 346 345 344 342 343 343 342 343 341 339 339 341 342 342 341 341 340 341 341 341 342 341 339
373 374 373 371 370 368 367 366 364 363 362 361 362 361 359 357 352 349 348 346 345 345 344 343 344 343 343 341 339 339 339 340 341 341 340 340 341 341 341 342 341 341
375 374 373 371 370 367 366 367 365 363 362 362 362 361 360 357 352 349 347 345 345 346 345 343 344 343 342 340 339 340 340 341 341 340 340 340 341 341 341 341 341 340
374 374 372 370 369 367 367 367 365 364 363 362 362 361 359 356 351 348 346 346 346 346 345 344 344 343 342 340 338 338 339 340 341 340 340 340 339 338 338 339 339 339
374 372 371 369 368 366 366 366 365 365 364 363 362 360 358 355 350 346 345 346 347 345 344 345 345 344 342 339 336 335 335 337 338 339 339 337 335 335 336 337 337 338
373 371 370 369 367 366 366 365 365 365 364 363 362 360 357 354 350 347 346 346 346 345 345 346 346 344 341 339 337 334 333 332 331 334 336 335 335 335 334 335 336 337
371 369 369 367 366 365 364 363 364 365 364 363 362 360 357 353 351 349 348 346 346 347 347 346 347 344 337 335 335 332 329 329 329 331 334 336 337 335 333 335 337 337
369 367 366 364 363 363 361 361 361 362 364 363 362 360 358 354 352 350 349 348 347 347 347 346 347 342 333 331 333 330 328 331 332 333 335 337 337 336 336 338 338 337
367 364 363 362 361 361 360 359 359 360 362 362 361 360 358 355 353 352 350 349 348 348 347 346 344 340 335 333 332 328 327 333 337 336 336 337 338 339 339 337 336 336
364 362 361 360 360 360 358 358 358 358 360 361 360 360 358 356 354 352 350 349 348 346 345 344 343 341 338 335 330 327 331 337 338 335 335 338 340 339 338 337 336 335
Wind_Speed
27 27 27 26 24 23 23 23 23 23 22 21 22 21 20 20 18 18 20 20 18 17 16 16 16 15 14 14 13 11 10 10 10 10 9 9 9 8 8 9 9 7
28 27 28 27 26 25 24 24 25 24 23 22 22 21 21 21 20 19 20 20 20 18 18 18 17 17 16 15 15 14 12 12 11 11 11 11 10 10 10 10 9 9
30 29 29 28 27 27 25 25 25 25 24 23 22 22 22 22 22 21 20 21 21 20 20 19 19 19 18 16 16 15 14 14 13 12 12 12 11 10 10 11 10 10
31 30 30 30 29 28 27 26 26 25 24 24 23 22 22 23 23 23 23 23 23 22 21 21 21 21 20 18 17 17 16 15 15 13 12 12 12 11 11 11 10 10
33 32 32 31 29 29 29 28 27 26 25 25 24 24 23 24 25 25 25 24 24 23 22 22 22 22 22 21 19 18 18 17 17 15 13 12 12 12 12 11 11 11
34 34 34 33 31 30 30 29 28 26 25 25 26 26 25 26 26 26 27 27 25 23 22 23 23 23 23 22 21 19 19 18 18 17 15 13 13 12 12 12 13 12
35 36 35 34 33 32 31 30 29 28 26 26 27 27 27 28 29 28 28 28 26 24 23 24 24 24 24 23 22 21 20 19 18 18 17 16 14 14 13 13 12 11
36 36 36 35 33 33 32 31 30 29 28 27 28 29 29 30 30 30 29 29 28 26 25 25 25 25 25 24 24 23 22 20 19 19 19 17 16 15 14 13 12 12
36 36 37 35 34 33 32 31 30 31 30 29 29 30 30 31 31 31 31 30 29 27 26 26 27 27 26 25 26 25 24 22 20 19 19 18 17 16 15 14 13 13
37 36 36 35 34 33 32 31 30 31 32 32 30 30 31 32 32 32 32 31 29 28 28 27 28 29 28 27 27 27 26 24 22 21 20 19 18 17 17 16 15 15
38 36 35 35 34 32 31 32 30 30 32 34 32 30 31 33 33 31 31 32 31 31 31 30 29 30 30 28 28 28 27 25 23 22 21 20 19 18 17 17 17 17
38 37 36 35 35 32 31 32 32 30 31 33 33 31 30 32 34 33 32 34 34 33 33 33 30 31 32 30 28 28 28 27 25 24 22 21 20 19 17 17 17 17
38 38 37 35 35 34 33 32 32 31 30 31 32 30 29 29 32 35 35 35 36 33 32 34 33 31 32 31 29 29 28 27 25 25 23 21 20 19 18 18 18 17
38 38 37 36 35 36 34 32 32 32 31 31 31 30 29 28 30 35 37 36 36 35 32 33 34 32 31 32 31 29 29 27 26 26 24 22 21 20 19 18 18 18
37 36 37 36 35 34 34 33 32 32 32 32 33 32 31 31 29 32 37 37 36 35 34 34 35 33 32 33 32 30 30 30 28 27 25 23 22 20 19 18 18 17
34 34 34 35 34 34 34 34 32 31 31 32 34 33 32 32 32 31 35 37 36 36 35 34 34 34 34 35 35 33 32 30 28 27 24 22 21 20 18 17 17 17
32 32 32 32 33 32 32 32 31 30 29 30 32 33 32 32 34 33 33 35 36 36 35 34 33 34 35 36 36 35 32 29 26 25 24 22 21 19 17 16 16 16
31 30 29 30 30 29 29 30 29 28 28 28 29 32 32 31 32 33 32 32 33 34 34 34 33 33 35 36 35 35 32 29 26 25 23 21 20 19 17 16 16 16
29 28 27 27 28 27 26 26 27 27 26 26 27 28 28 28 29 31 31 31 31 31 32 32 31 33 34 34 34 34 33 29 26 24 22 20 19 18 16 16 16 17
28 27 26 25 26 26 24 24 26 26 24 23 23 24 24 25 26 29 30 30 29 29 30 29 30 32 33 32 33 35 33 28 23 20 19 18 17 16 16 15 15 15
28 26 25 24 24 25 23 23 23 23 22 22 22 24 25 26 27 27 27 28 27 27 28 27 28 31 31 31 32 33 31 28 24 20 18 17 18 17 16 15 15 15
26 25 23 22 22 22 21 21 20 21 23 23 22 23 24 26 26 25 26 26 25 25 26 24 25 29 30 29 29 28 26 26 25 22 19 18 19 18 17 17 17 17
23 24 22 21 21 21 19 19 18 19 21 23 22 21 21 24 25 25 25 26 24 24 24 21 23 26 27 25 26 25 23 24 24 22 20 17 15 15 16 16 13 13
22 23 22 21 21 20 18 17 16 16 18 20 20 19 19 22 25 24 24 25 24 24 23 22 23 25 25 26 27 24 22 24 23 20 17 14 12 12 14 13 12 13
21 22 21 20 20 19 18 18 16 15 16 18 18 18 18 20 23 23 23 23 23 21 20 21 23 25 26 27 25 20 19 22 22 18 14 12 13 13 13 13 14 13
22 22 22 21 20 19 18 18 17 15 16 17 18 18 17 18 21 22 20 20 21 19 18 21 25 26 27 26 19 16 19 21 18 14 12 12 14 14 15 15 12 11
Wind_Direction
194 194 194 195 195 194 192 190 190 190 187 186 185 185 186 187 188 187 186 189 192 193 196 195 193 194 191 193 197 190 181 185 193 202 204 206 216 226 232 231 235 240
194 194 195 195 196 196 195 193 193 193 191 189 189 189 189 189 189 189 187 188 191 193 195 195 193 193 192 192 194 193 191 190 194 202 205 208 214 224 233 233 230 230
194 194 195 196 197 196 195 195 196 195 194 192 193 191 189 189 188 189 190 190 192 194 194 194 194 194 194 195 196 196 196 194 196 200 204 207 212 220 231 233 231 230
194 195 196 197 198 197 195 196 197 196 195 195 196 192 188 188 188 188 191 193 193 193 194 194 193 193 194 196 198 199 199 199 199 202 204 205 208 217 229 233 233 231
195 196 198 198 198 198 197 198 197 196 196 195 195 193 190 188 187 188 191 194 195 196 195 194 193 193 194 195 197 198 200 201 200 202 205 203 205 215 224 232 234 231
196 197 199 199 198 198 198 199 199 197 196 195 194 194 192 189 187 189 192 195 197 196 196 196 195 195 195 196 197 198 202 205 202 200 202 202 206 213 221 229 230 229
196 198 199 200 199 199 199 200 200 200 197 196 194 194 193 191 190 192 194 196 196 196 197 196 195 196 196 197 197 198 201 207 206 201 199 202 207 213 221 227 227 225
196 199 200 201 200 201 200 200 200 201 199 196 195 195 193 192 192 193 195 196 196 196 197 196 195 195 195 196 196 198 201 206 208 204 199 199 204 213 221 225 228 229
196 199 200 200 201 201 200 199 199 200 200 198 196 196 194 194 195 195 196 195 196 197 197 196 196 195 195 195 196 198 200 204 207 206 201 197 200 211 219 222 227 230
197 198 199 198 199 200 199 198 198 198 200 200 198 196 195 196 197 197 196 194 194 196 196 197 197 196 195 195 197 199 200 202 204 205 203 200 201 209 217 221 225 229
197 197 197 197 198 198 197 197 197 196 198 199 199 197 195 196 197 197 195 193 193 195 196 197 197 196 195 195 196 199 200 201 202 204 205 205 205 210 218 222 225 228
197 197 197 197 197 197 197 198 198 197 197 197 197 197 195 194 196 196 195 194 195 197 196 196 195 197 198 197 196 198 200 200 201 202 204 205 207 211 219 225 227 230
197 198 199 198 198 199 199 199 200 199 197 194 195 195 193 192 194 196 197 196 196 197 196 196 196 197 200 200 197 197 199 200 201 204 204 206 210 213 219 226 230 232
197 198 199 199 200 201 200 200 201 200 198 194 193 194 194 195 196 195 196 197 197 197 197 198 198 198 200 200 198 197 197 198 201 204 205 208 213 216 220 225 229 233
197 198 199 199 200 200 200 200 201 200 198 195 194 195 197 200 198 194 195 196 196 196 197 198 199 199 199 199 197 196 196 197 199 202 204 208 213 216 220 225 231 234
195 196 197 198 198 199 199 200 200 201 200 197 197 198 199 200 198 194 194 195 195 196 197 198 199 200 200 200 199 197 196 196 198 199 201 207 213 218 222 227 234 237
192 194 195 196 197 197 198 198 200 201 202 201 199 198 199 199 196 195 195 195 196 196 197 198 199 200 201 202 202 200 197 196 197 199 201 207 213 218 223 229 236 241
189 190 192 193 193 194 195 197 200 202 204 204 200 198 199 198 195 195 195 195 196 196 196 198 199 201 201 201 202 202 199 197 198 199 201 206 213 219 225 231 236 241
184 185 187 188 188 189 191 194 198 201 204 204 199 197 199 199 197 196 195 197 197 196 197 198 201 202 200 199 201 201 199 197 197 198 201 205 211 217 223 230 235 239
180 181 182 183 183 185 188 193 196 199 203 202 197 195 197 200 200 199 198 199 198 197 198 199 202 202 198 199 204 203 201 199 196 196 201 206 212 219 225 232 238 242
176 176 177 177 179 182 187 193 196 199 201 199 195 196 198 201 204 203 203 201 199 199 199 198 202 200 195 199 204 203 202 203 201 203 210 215 223 228 231 237 245 251
170 170 170 172 174 179 187 193 195 199 202 201 200 199 197 200 205 207 207 204 201 200 197 196 200 197 193 197 199 196 199 205 207 211 215 221 227 227 228 236 246 254
164 167 168 170 174 179 186 190 193 198 201 203 204 200 195 196 200 204 207 205 202 199 193 192 196 191 187 192 194 191 194 202 206 208 211 219 226 222 224 235 250 261
165 167 169 172 178 180 179 183 191 198 200 200 201 198 194 195 197 200 203 203 201 198 192 189 189 185 181 185 188 188 192 199 203 202 204 217 225 220 220 230 243 252
163 166 168 173 179 179 178 182 188 195 199 200 200 200 198 197 197 198 198 197 196 194 190 185 182 180 179 181 185 189 193 198 201 195 191 208 218 216 219 228 237 248
164 166 167 170 176 179 180 182 184 190 198 197 198 203 203 197 193 193 189 185 184 185 186 184 180 178 179 181 186 195 196 197 195 181 180 202 214 218 223 226 234 250